| time (UTC) | temp F | wind direction | speed knots | gust knots | rain 1hr in | rain 24hr in | rain mn in | humidity % | barometer mb |
| 20260506022745 | 39 | 45 | 0.9 | 5.2 | 0.00 | 0.00 | 0.00 | 49 | 1024.3 |
| 20260506012749 | 40 | 360 | 3.5 | 6.1 | 0.00 | 0.00 | 0.00 | 51 | 1024.5 |
| 20260506005747 | 40 | 360 | 3.5 | 6.1 | 0.00 | 0.00 | 0.00 | 52 | 1024.5 |
| 20260506002744 | 40 | 45 | 4.3 | 7.8 | 0.00 | 0.00 | 0.00 | 53 | 1024.5 |
| 20260505235743 | 41 | 360 | 3.5 | 7.0 | 0.00 | 0.00 | 0.00 | 51 | 1024.6 |
| 20260505232742 | 41 | 360 | 4.3 | 8.7 | 0.00 | 0.00 | 0.00 | 42 | 1024.4 |
| 20260505222743 | 41 | 360 | 5.2 | 7.8 | 0.00 | 0.00 | 0.00 | 35 | 1024.4 |
| 20260505215743 | 41 | 45 | 5.2 | 9.6 | 0.00 | 0.00 | 0.00 | 31 | 1024.5 |
| 20260505212742 | 42 | 360 | 6.1 | 10.4 | 0.00 | 0.00 | 0.00 | 26 | 1024.4 |
| 20260505205746 | 42 | 360 | 5.2 | 10.4 | 0.00 | 0.00 | 0.00 | 18 | 1024.4 |
| 20260505202750 | 42 | 360 | 7.0 | 12.2 | 0.00 | 0.00 | 0.00 | 21 | 1024.5 |
| 20260505195744 | 42 | 292 | 7.0 | 12.2 | 0.00 | 0.00 | 0.00 | 10 | 1024.5 |
| 20260505192746 | 43 | 360 | 7.8 | 11.3 | 0.00 | 0.00 | 0.00 | 10 | 1024.4 |
| 20260505185746 | 44 | 360 | 8.7 | 11.3 | 0.00 | 0.00 | 0.00 | 10 | 1023.9 |
| 20260505182745 | 45 | 360 | 4.3 | 8.7 | 0.00 | 0.00 | 0.00 | 10 | 1023.7 |
| 20260505175745 | 46 | 270 | 4.3 | 9.6 | 0.00 | 0.00 | 0.00 | 10 | 1024.0 |
| 20260505172746 | 47 | 270 | 7.8 | 13.0 | 0.00 | 0.00 | 0.00 | 10 | 1023.7 |
| 20260505165745 | 47 | 270 | 7.0 | 13.9 | 0.00 | 0.00 | 0.00 | 10 | 1023.7 |
| 20260505152746 | 48 | 360 | 7.8 | 11.3 | 0.00 | 0.00 | 0.00 | 10 | 1023.7 |
| 20260505115745 | 46 | 360 | 7.8 | 11.3 | 0.00 | 0.00 | 0.00 | 10 | 1023.7 |
| 20260505112742 | 46 | 360 | 3.5 | 7.8 | 0.00 | 0.00 | 0.00 | 10 | 1023.6 |
| 20260505095746 | 43 | 360 | 4.3 | 7.0 | 0.00 | 0.00 | 0.00 | 10 | 1023.6 |
| 20260505085746 | 44 | 360 | 4.3 | 5.2 | 0.00 | 0.00 | 0.00 | 10 | 1023.4 |
| 20260505075744 | 45 | 360 | 0.0 | 2.6 | 0.00 | 0.00 | 0.00 | 10 | 1023.0 |
| 20260505072745 | 46 | 360 | 0.0 | 2.6 | 0.00 | 0.00 | 0.00 | 10 | 1023.0 |
| 20260505062744 | 43 | 360 | 0.0 | 2.6 | 0.00 | 0.00 | 0.00 | 35 | 1022.7 |
| 20260505055744 | 44 | 360 | 0.9 | 2.6 | 0.00 | 0.00 | 0.00 | 81 | 1023.0 |
| 20260505052745 | 40 | 45 | 0.0 | 3.5 | 0.00 | 0.00 | 0.00 | 99 | 1023.1 |
| 20260505035744 | 37 | 45 | 0.0 | 2.6 | 0.00 | 0.00 | 0.00 | 92 | 1022.2 |
| 20260505032744 | 38 | 45 | 0.0 | 3.5 | 0.00 | 0.00 | 0.00 | 89 | 1022.5 |
| 20260505025744 | 37 | 45 | 1.7 | 4.3 | 0.00 | 0.00 | 0.00 | 99 | 1022.4 |